Wetbulb
49.55 43.72 41.84 45.12 47.69 46.16 44.23 42.05 41.02 42.97 47.31 45.28 44.52 43.60 45.78 47.67 48.43 47.62 48.28 48.83 49.08 51.77 53.90 55.72 57.19 58.39 59.53 60.94 64.61 63.98 62.62 61.85 61.71 60.45 60.17 60.78 60.89 60.65 60.75 60.81 60.63 58.52 58.18 57.81
44.77 41.36 47.87 49.90 48.48 46.91 45.17 42.66 41.59 45.28 48.37 45.93 43.11 42.52 45.54 47.94 48.52 48.72 49.23 47.21 50.42 51.06 54.31 57.15 58.10 58.17 58.09 58.52 62.29 62.76 62.55 61.80 61.72 60.31 58.57 58.75 58.59 58.36 58.85 59.26 59.51 59.77 58.42 57.92
42.42 46.58 50.24 47.49 45.65 44.61 43.71 42.38 42.00 42.35 44.49 44.64 43.43 41.22 43.91 47.97 48.43 49.09 48.57 49.42 51.19 51.67 52.82 55.32 56.56 55.85 55.98 56.22 56.94 58.14 59.79 60.13 59.01 57.92 54.75 52.93 52.68 52.44 52.75 53.75 53.62 53.99 57.24 58.23
45.04 49.59 47.27 45.71 44.86 45.74 41.26 46.73 45.07 43.50 40.02 35.31 42.50 31.35 41.91 45.37 46.66 46.68 47.83 47.49 49.07 51.14 52.78 54.29 54.40 53.89 54.29 54.45 55.29 56.33 57.09 57.57 57.08 54.99 53.96 53.95 51.89 50.61 49.98 48.88 49.01 47.50 48.24 48.66
44.22 46.36 45.87 45.06 46.14 47.86 44.64 46.85 43.55 42.24 39.18 36.44 39.54 33.81 39.14 44.17 44.54 45.32 45.51 47.87 47.83 49.19 49.97 50.49 51.37 52.29 53.58 53.88 53.60 53.75 54.28 55.13 54.66 53.75 52.78 51.79 52.51 49.45 47.24 46.78 46.74 46.87 46.80 46.79
45.43 49.07 46.69 46.25 47.84 46.98 47.52 43.99 42.66 40.87 38.12 30.83 39.17 36.25 36.89 41.41 43.07 45.86 47.88 49.13 49.07 48.54 48.80 49.47 50.55 50.89 50.63 51.18 52.51 53.07 53.33 53.10 52.95 51.82 51.34 51.09 51.14 48.98 46.90 45.67 45.65 45.60 45.75 45.82
45.63 46.45 48.04 48.98 43.95 46.23 44.26 38.63 31.41 30.87 30.37 30.57 41.93 38.31 39.28 44.13 46.47 48.06 48.12 48.43 48.61 49.20 48.69 48.45 49.06 49.23 49.38 49.73 50.52 51.88 52.64 52.47 51.86 50.97 50.77 50.46 49.79 48.19 46.53 46.14 45.47 44.68 44.63 44.50
39.06 38.01 46.01 48.63 45.12 42.53 41.83 39.74 32.74 27.73 27.63 32.68 41.01 34.53 39.27 45.68 48.95 49.84 50.21 49.41 49.43 48.46 48.93 48.84 49.62 48.59 47.96 48.70 49.54 50.64 51.45 51.97 52.51 50.97 50.76 50.09 49.73 48.91 47.08 47.13 45.53 44.81 45.20 44.75
40.79 41.80 48.93 48.63 48.67 45.82 41.71 37.69 42.14 36.01 36.29 30.97 34.55 38.99 43.57 45.54 45.15 47.30 48.08 47.67 46.13 46.57 46.96 46.75 45.96 46.15 45.65 45.27 46.36 46.72 49.02 50.30 51.24 51.67 51.05 50.21 49.88 48.75 48.12 46.90 45.74 45.36 44.83 44.34
43.94 37.94 47.00 49.09 48.07 46.50 43.08 44.57 35.46 36.03 28.20 25.92 33.03 34.33 35.55 40.87 43.03 45.58 45.62 45.23 45.73 45.99 45.42 44.74 44.42 45.02 45.33 45.69 46.63 46.69 46.93 47.72 50.93 51.15 51.83 52.52 50.48 49.52 48.60 46.88 46.35 45.63 44.62 44.14
43.46 39.49 40.10 44.37 42.59 41.18 42.36 38.05 39.00 37.80 34.37 26.88 24.42 30.11 41.55 41.45 43.40 44.21 45.04 45.81 44.11 43.73 42.95 43.08 43.61 44.47 45.19 45.58 45.38 46.55 47.41 48.43 47.96 49.04 50.52 51.00 50.58 51.32 49.99 48.68 48.85 45.90 44.00 44.38
43.64 40.27 33.68 38.28 44.99 46.97 45.19 42.06 40.68 33.80 31.57 32.27 28.87 31.93 44.83 43.99 44.44 44.60 43.70 44.14 43.36 42.64 42.79 43.56 44.11 44.64 44.20 44.21 45.02 46.47 47.21 47.77 48.12 48.93 49.48 50.83 50.00 50.03 49.89 48.65 46.09 43.34 44.08 44.26
43.73 38.59 32.49 36.80 40.74 43.91 40.49 42.84 43.39 42.05 37.69 33.71 29.93 31.04 43.12 43.95 43.38 44.10 41.85 42.02 43.49 42.32 41.73 43.12 43.52 43.84 43.99 43.92 44.50 46.56 47.12 47.17 48.11 48.10 47.30 47.21 49.41 48.88 48.31 47.03 45.80 44.66 45.19 43.95
46.69 41.19 38.43 34.88 36.90 40.76 37.73 40.20 41.92 39.94 30.54 33.46 32.94 35.03 39.31 42.15 42.00 42.50 41.78 42.15 42.31 43.07 43.52 43.25 42.05 43.24 44.27 45.95 45.97 46.51 46.45 47.03 47.56 47.82 47.18 46.49 46.58 48.92 48.47 48.18 48.75 47.26 45.45 43.98
42.31 36.27 39.00 40.37 41.29 41.43 39.73 38.76 38.92 37.30 38.25 34.07 36.79 37.41 40.10 40.73 40.34 40.95 42.28 43.14 43.46 43.35 43.00 43.41 43.38 43.35 44.23 45.02 45.27 45.78 46.74 46.83 47.95 47.38 46.91 46.87 47.19 48.08 48.38 48.69 47.48 46.45 44.74 43.98
41.90 34.70 37.18 35.81 39.81 39.96 37.35 38.84 38.73 39.09 38.99 38.76 39.01 38.03 44.31 43.93 43.41 42.34 42.73 42.84 40.95 42.17 43.50 43.70 43.94 44.02 43.95 44.96 45.38 45.93 45.83 45.95 47.62 46.09 45.31 45.75 47.05 46.20 47.84 48.00 46.25 45.75 44.00 43.15
37.52 34.62 32.80 31.85 37.57 36.73 31.95 35.93 37.73 38.57 39.99 39.42 35.08 40.01 42.81 41.05 42.03 42.41 40.12 40.25 41.16 41.95 42.06 42.00 42.07 42.73 43.56 43.54 45.25 44.57 45.15 46.24 46.58 45.89 46.59 47.31 46.22 46.13 47.52 48.39 46.52 44.47 42.85 42.15
35.88 33.31 33.49 30.48 33.68 24.48 35.28 41.63 41.68 39.12 40.10 41.14 41.13 41.98 41.96 42.32 42.83 40.50 39.62 39.90 40.63 41.17 41.63 41.78 41.43 41.70 42.62 43.51 44.12 45.29 46.17 46.15 46.38 46.02 45.82 47.41 47.25 46.96 47.73 46.96 45.48 45.66 43.50 41.68
40.75 35.25 31.31 28.84 28.95 32.63 35.60 39.14 37.09 34.96 34.34 39.95 38.26 38.57 39.03 39.44 38.84 37.51 41.35 41.25 40.44 40.51 41.07 40.76 41.60 41.69 41.77 42.31 43.48 44.25 45.30 45.20 46.59 46.42 45.44 46.13 45.16 43.92 42.71 43.26 43.02 42.72 44.97 42.87
39.69 39.33 32.64 30.18 26.34 24.96 33.52 38.42 41.15 41.61 30.18 39.89 39.48 38.21 37.61 37.05 28.76 32.34 38.20 40.16 39.53 40.53 40.84 40.31 40.71 41.30 41.21 41.92 43.08 43.76 43.93 44.18 43.90 45.25 43.37 44.82 44.28 42.98 41.34 40.55 41.96 38.71 41.75 40.74
32.11 31.97 29.42 30.23 28.70 31.80 38.91 40.67 41.66 28.31 30.39 38.55 38.69 37.43 36.52 33.37 34.52 36.96 38.58 38.64 39.19 39.21 39.78 40.91 39.80 40.24 40.66 41.99 42.52 40.07 36.35 40.24 43.27 43.00 41.85 42.48 43.88 41.52 40.35 39.49 38.82 38.41 37.05 34.97
31.15 30.23 29.50 30.77 28.25 25.91 41.64 40.78 33.10 36.04 38.73 38.97 38.46 38.23 37.10 36.76 37.13 37.54 36.73 36.67 37.88 37.75 38.12 38.73 37.87 38.72 40.58 42.25 41.81 39.07 38.20 38.58 38.90 37.69 38.65 41.62 41.24 40.71 39.21 37.55 36.53 35.91 34.57 33.13
30.74 34.22 31.59 32.37 31.65 39.67 41.17 41.07 41.51 40.62 38.06 37.84 36.48 36.11 36.01 35.12 35.30 35.93 35.71 35.87 36.80 37.41 37.37 38.29 37.42 38.90 40.50 41.79 42.57 41.65 39.88 41.97 37.97 36.18 35.35 36.79 37.75 38.14 38.21 35.93 34.16 33.31 33.25 32.70
37.15 39.33 34.47 34.73 37.11 38.31 41.08 41.50 41.34 41.02 38.99 37.30 36.62 35.87 36.00 34.53 35.31 35.23 35.78 35.89 36.11 36.94 37.00 39.33 39.75 39.41 39.23 41.13 43.06 44.61 43.96 44.78 39.23 35.69 35.79 36.18 35.06 35.44 34.54 34.23 33.51 33.12 32.42 31.99
35.29 38.35 35.33 35.10 38.04 39.66 40.48 40.52 38.36 37.77 37.87 37.46 37.62 37.04 36.20 35.98 35.67 35.84 35.90 36.21 36.44 37.90 38.48 38.87 38.53 39.68 40.74 42.45 42.88 44.08 44.13 44.04 40.29 38.92 38.74 37.62 36.09 35.21 33.84 33.16 32.98 32.80 32.82 33.31
37.27 34.52 32.95 30.67 37.84 36.18 35.69 37.55 38.49 36.75 36.54 37.41 37.21 37.00 37.75 37.12 36.39 37.61 37.24 37.24 37.47 37.33 38.27 39.07 39.78 39.48 40.41 42.32 41.83 41.98 43.63 43.24 43.47 40.48 37.85 36.89 34.92 33.99 33.68 33.27 32.60 34.54 33.31 34.29
MSLP
1008.73 1008.95 1008.47 1007.96 1007.68 1007.36 1007.20 1007.10 1006.82 1005.90 1005.23 1005.31 1005.45 1005.41 1005.01 1004.48 1004.11 1004.07 1004.36 1005.02 1005.43 1006.36 1006.75 1007.02 1007.49 1007.72 1007.89 1008.26 1008.95 1010.14 1010.80 1011.56 1012.14 1012.75 1013.25 1013.27 1013.44 1013.61 1013.99 1013.87 1013.94 1014.44 1014.77 1014.78
1009.35 1008.71 1007.67 1007.37 1007.00 1007.09 1007.06 1007.10 1006.88 1006.26 1005.83 1005.96 1005.92 1005.67 1004.85 1004.31 1003.78 1003.57 1003.80 1004.73 1006.06 1006.71 1007.35 1007.87 1008.42 1008.84 1009.53 1009.74 1010.23 1010.66 1011.25 1011.85 1012.32 1012.73 1013.15 1013.31 1013.29 1013.43 1013.44 1013.53 1013.63 1013.86 1014.14 1014.41
1008.89 1007.74 1007.24 1007.29 1007.10 1006.94 1006.97 1007.05 1007.11 1007.18 1006.71 1006.41 1006.40 1005.79 1004.75 1003.60 1003.43 1003.07 1003.09 1004.23 1005.76 1006.47 1007.35 1008.04 1008.76 1009.27 1009.74 1010.56 1011.01 1011.29 1011.52 1011.85 1012.22 1012.57 1013.16 1013.59 1013.78 1013.82 1013.73 1013.71 1013.80 1013.90 1013.69 1013.73
1008.17 1007.37 1007.27 1007.18 1007.14 1006.93 1006.87 1006.84 1007.13 1007.49 1007.96 1008.10 1007.58 1006.79 1005.61 1003.86 1003.43 1004.14 1004.27 1005.39 1006.17 1007.08 1007.80 1008.37 1009.19 1009.80 1010.40 1010.89 1011.19 1011.41 1011.50 1012.00 1012.62 1013.02 1013.56 1014.01 1014.18 1014.35 1014.30 1014.33 1014.39 1014.61 1014.50 1014.36
1007.58 1006.86 1006.92 1006.80 1006.59 1006.57 1006.78 1007.01 1007.67 1008.27 1008.72 1008.96 1007.91 1008.15 1005.40 1004.19 1003.94 1004.85 1005.53 1005.99 1006.85 1007.61 1008.13 1008.87 1009.66 1010.24 1010.86 1011.24 1011.69 1012.09 1012.03 1012.20 1012.47 1012.76 1013.16 1013.74 1014.12 1014.44 1014.58 1014.67 1014.75 1014.92 1015.11 1015.00
1006.95 1006.27 1006.30 1005.75 1005.83 1006.13 1006.59 1007.28 1007.93 1008.39 1008.95 1009.68 1007.87 1008.30 1006.19 1004.72 1004.04 1005.06 1005.94 1006.80 1007.55 1008.39 1009.04 1009.68 1010.14 1010.69 1011.11 1011.23 1011.55 1011.72 1011.74 1011.87 1012.05 1012.44 1012.87 1013.27 1013.61 1014.01 1014.37 1014.52 1014.82 1014.98 1015.12 1015.21
1006.80 1006.21 1005.51 1005.30 1005.85 1006.28 1006.85 1007.87 1008.98 1009.23 1009.63 1009.01 1007.96 1007.56 1005.65 1004.51 1003.81 1003.93 1005.23 1006.56 1007.54 1008.37 1009.11 1009.82 1010.43 1010.74 1010.84 1011.09 1011.08 1011.34 1011.56 1011.75 1011.89 1012.08 1012.44 1012.74 1013.11 1013.32 1013.87 1014.28 1014.57 1014.82 1014.93 1014.95
1007.14 1006.17 1005.24 1004.99 1005.33 1006.06 1006.97 1008.00 1009.51 1009.79 1009.77 1009.08 1008.58 1007.36 1005.72 1004.75 1004.39 1004.83 1005.84 1006.72 1007.75 1008.64 1009.14 1009.75 1010.16 1010.21 1010.61 1010.74 1010.91 1011.07 1011.23 1011.35 1011.51 1011.81 1011.92 1012.28 1012.43 1012.79 1013.03 1013.37 1013.77 1013.92 1013.90 1013.72
1006.94 1006.27 1005.49 1005.22 1005.69 1006.31 1007.14 1007.93 1008.55 1009.44 1009.69 1009.29 1008.29 1006.89 1006.16 1005.47 1005.58 1005.87 1006.52 1007.25 1007.99 1008.45 1008.89 1009.34 1009.85 1009.92 1010.07 1010.12 1010.24 1010.43 1010.72 1010.83 1010.70 1010.97 1011.22 1011.34 1011.59 1012.14 1012.35 1012.36 1012.62 1012.96 1013.14 1013.36
1007.20 1006.81 1006.35 1005.96 1006.03 1006.31 1006.85 1007.68 1008.96 1009.91 1010.52 1009.97 1008.48 1007.59 1006.62 1006.56 1006.47 1006.81 1007.33 1007.70 1008.25 1008.68 1009.06 1009.28 1009.39 1009.39 1009.54 1009.64 1009.70 1009.86 1009.96 1009.98 1010.05 1010.16 1010.32 1010.32 1010.69 1011.23 1011.85 1012.15 1012.08 1012.20 1012.65 1013.21
1008.87 1008.57 1007.70 1007.20 1007.06 1007.31 1007.62 1008.09 1009.00 1009.97 1010.76 1010.51 1009.78 1008.20 1006.89 1006.75 1006.82 1007.20 1007.70 1007.91 1008.16 1008.40 1008.65 1008.84 1009.07 1009.16 1009.30 1009.28 1009.23 1009.27 1009.31 1009.37 1009.71 1009.91 1009.69 1010.07 1010.55 1010.80 1010.71 1011.64 1011.48 1011.78 1012.35 1012.90
1010.71 1010.51 1009.86 1008.97 1008.32 1007.98 1008.00 1008.42 1009.04 1009.61 1010.03 1009.90 1009.97 1006.29 1006.22 1006.37 1006.60 1006.99 1007.43 1007.69 1007.87 1007.94 1008.28 1008.60 1008.80 1008.89 1009.02 1009.11 1009.10 1008.98 1008.96 1009.00 1009.18 1009.37 1009.46 1009.66 1009.94 1010.04 1010.24 1010.82 1011.17 1011.67 1012.22 1012.63
1011.22 1011.90 1011.60 1009.98 1008.99 1008.31 1008.77 1008.25 1008.56 1009.04 1009.26 1009.29 1009.81 1007.10 1006.36 1006.50 1006.80 1006.95 1007.43 1007.78 1007.87 1008.11 1008.24 1008.40 1008.59 1008.84 1009.01 1008.99 1008.88 1009.01 1008.94 1008.98 1008.97 1009.03 1009.17 1009.26 1009.45 1009.71 1009.94 1010.46 1010.94 1011.61 1012.01 1012.39
1011.45 1012.52 1011.97 1010.66 1009.63 1009.28 1009.42 1008.95 1009.10 1009.61 1009.58 1008.43 1007.58 1006.46 1007.20 1006.59 1006.98 1007.25 1007.45 1007.62 1007.66 1007.69 1007.80 1008.03 1008.96 1009.30 1009.19 1009.05 1008.90 1009.26 1008.90 1009.14 1008.92 1008.85 1008.84 1008.75 1008.95 1009.16 1009.45 1009.59 1009.97 1010.56 1011.30 1011.90
1012.49 1012.59 1012.32 1011.23 1010.70 1010.41 1009.62 1009.04 1009.72 1009.52 1008.62 1008.94 1005.68 1006.82 1006.49 1006.63 1006.82 1006.99 1007.09 1007.24 1007.34 1007.60 1008.03 1008.65 1008.97 1009.23 1009.02 1009.10 1009.18 1009.47 1009.16 1008.94 1008.78 1008.71 1008.56 1008.38 1008.20 1008.10 1008.51 1008.81 1009.22 1009.99 1010.52 1010.93
1013.29 1012.97 1012.76 1011.58 1011.31 1010.65 1009.79 1008.08 1008.64 1008.21 1007.91 1007.70 1006.80 1004.75 1006.13 1005.89 1006.23 1006.47 1006.80 1007.08 1007.54 1008.06 1008.44 1008.77 1009.04 1009.25 1009.21 1009.30 1009.23 1009.13 1008.89 1008.41 1008.11 1008.24 1008.01 1007.88 1007.66 1007.39 1007.49 1007.89 1008.57 1009.26 1009.92 1010.61
1013.53 1013.64 1013.14 1011.59 1011.08 1010.56 1009.06 1006.62 1006.63 1006.31 1006.00 1006.48 1006.05 1004.16 1005.61 1005.72 1006.14 1006.26 1006.71 1007.06 1007.70 1008.31 1008.65 1008.88 1009.11 1009.32 1009.35 1009.37 1009.31 1009.09 1008.81 1008.66 1008.43 1007.76 1007.48 1007.49 1007.06 1006.75 1006.86 1007.36 1008.26 1008.95 1009.63 1009.97
1012.54 1013.41 1013.35 1012.13 1011.52 1009.82 1005.83 1005.06 1004.87 1004.74 1004.42 1004.88 1004.85 1004.88 1005.16 1005.36 1005.59 1006.46 1006.69 1007.37 1008.13 1008.42 1008.66 1008.88 1008.98 1009.14 1009.34 1009.29 1009.38 1009.22 1008.69 1008.53 1008.51 1008.30 1007.79 1007.30 1007.26 1007.35 1006.93 1007.15 1007.60 1008.06 1008.72 1009.45
1011.33 1012.43 1012.52 1012.16 1010.83 1008.29 1005.73 1004.89 1004.44 1004.37 1003.46 1003.60 1004.28 1004.61 1004.82 1005.48 1006.33 1007.32 1007.26 1007.54 1007.91 1008.09 1008.26 1008.26 1008.33 1008.51 1008.91 1008.80 1009.01 1009.17 1008.88 1008.76 1008.49 1008.12 1008.44 1007.69 1007.40 1007.54 1007.53 1007.50 1007.65 1007.99 1008.23 1008.74
1010.96 1011.19 1011.59 1011.25 1010.20 1008.41 1005.46 1004.51 1003.96 1004.00 1003.59 1003.55 1003.94 1004.77 1004.91 1005.34 1006.64 1007.56 1007.43 1007.37 1007.53 1007.65 1007.90 1007.97 1008.03 1008.12 1008.36 1008.23 1008.39 1008.84 1008.95 1008.49 1008.28 1008.02 1008.14 1007.77 1007.31 1007.55 1007.71 1007.72 1007.81 1007.97 1008.07 1008.25
1010.43 1010.45 1009.94 1009.66 1008.65 1007.07 1005.15 1004.58 1004.47 1004.93 1004.67 1004.43 1004.56 1005.13 1005.43 1006.11 1006.96 1007.05 1006.99 1007.21 1007.17 1007.27 1007.37 1007.58 1007.70 1007.75 1007.73 1007.78 1008.11 1008.47 1008.71 1008.45 1007.82 1007.42 1008.10 1007.76 1007.51 1007.49 1007.48 1007.74 1008.21 1008.38 1008.44 1008.55
1008.41 1008.91 1008.56 1008.66 1007.74 1006.03 1004.31 1004.18 1004.34 1004.46 1004.58 1004.78 1004.99 1005.30 1005.90 1006.29 1006.59 1006.81 1007.14 1007.31 1007.36 1007.48 1007.20 1007.29 1007.22 1007.24 1007.32 1007.50 1007.95 1008.36 1008.53 1008.32 1008.57 1008.39 1008.64 1008.10 1007.63 1007.67 1007.64 1008.08 1008.56 1008.65 1008.85 1009.14
1007.26 1005.78 1006.08 1006.58 1005.13 1004.21 1003.92 1003.49 1003.68 1004.29 1004.82 1005.00 1005.29 1005.52 1005.90 1006.33 1006.61 1006.87 1007.16 1007.23 1007.31 1007.36 1007.13 1006.97 1007.07 1007.12 1007.32 1007.52 1007.69 1008.11 1008.22 1007.73 1007.98 1008.46 1008.67 1007.93 1008.00 1007.99 1008.17 1008.43 1008.82 1009.03 1009.21 1009.38
1005.15 1005.04 1005.26 1005.39 1004.35 1003.98 1003.85 1004.04 1004.09 1004.45 1004.82 1005.13 1005.56 1005.77 1006.03 1006.42 1006.59 1006.92 1007.00 1007.06 1007.11 1007.08 1007.18 1007.32 1007.33 1007.22 1007.11 1007.03 1007.15 1007.54 1007.68 1007.63 1007.93 1008.46 1008.40 1008.27 1008.09 1008.40 1008.67 1008.71 1008.92 1009.08 1009.45 1009.69
1003.80 1003.73 1003.99 1004.13 1003.71 1004.24 1004.44 1004.47 1004.78 1004.92 1005.21 1005.38 1005.72 1005.88 1006.17 1006.33 1006.56 1006.75 1006.94 1007.00 1007.23 1007.53 1007.10 1007.40 1007.56 1007.31 1007.29 1006.96 1007.03 1006.78 1006.86 1007.31 1007.48 1007.94 1007.85 1008.03 1008.14 1008.96 1008.91 1008.93 1009.10 1009.11 1009.43 1009.59
1003.06 1003.24 1003.50 1003.34 1003.41 1004.08 1004.81 1004.69 1004.82 1005.35 1005.71 1005.95 1006.31 1006.44 1006.51 1006.53 1006.83 1007.03 1007.44 1007.80 1007.96 1007.91 1007.60 1007.61 1007.57 1007.42 1007.43 1006.97 1006.80 1006.70 1006.87 1006.59 1006.84 1006.98 1007.17 1007.88 1008.59 1008.69 1008.82 1008.97 1009.22 1009.11 1009.31 1009.54
Wind_Speed
7 2 7 11 7 3 4 4 7 7 9 5 6 6 10 10 9 9 9 8 8 11 8 9 9 12 14 11 12 8 10 6 4 2 2 1 3 3 2 4 7 8 8 9
4 6 11 6 2 2 4 5 8 8 7 7 7 10 11 14 14 12 14 6 14 10 11 12 12 13 13 13 9 8 8 8 5 3 2 2 3 3 3 4 5 9 9 9
7 4 5 3 4 2 5 5 6 5 7 7 8 8 8 10 4 6 6 15 14 15 13 12 13 12 10 10 8 8 7 7 5 5 3 3 3 3 1 1 2 2 6 10
7 8 3 4 6 7 4 5 6 8 6 3 7 7 16 15 15 5 11 12 11 13 12 12 11 10 9 6 7 6 7 8 6 6 4 1 1 2 1 2 3 4 6 5
7 6 8 8 7 4 5 5 4 4 8 5 15 3 9 6 15 10 7 9 9 9 11 10 9 9 8 7 6 5 6 6 6 6 5 2 2 1 1 1 2 2 3 5
9 6 4 8 6 4 3 5 7 6 2 0 18 5 5 8 4 13 9 12 11 10 10 10 8 8 7 6 7 7 7 7 7 7 6 6 5 4 2 2 2 1 1 1
5 8 7 7 4 3 4 2 4 4 2 7 6 6 8 6 8 17 17 13 10 10 9 8 7 6 7 8 8 6 7 6 8 8 8 8 7 7 5 4 3 3 2 3
5 7 4 2 7 6 3 6 5 6 3 8 1 6 6 4 9 12 12 10 10 9 8 8 9 7 0 1 4 6 6 6 7 8 9 8 8 6 6 7 6 7 7 8
3 5 4 7 3 7 4 3 6 4 5 4 6 7 2 8 7 8 11 11 9 9 8 6 7 5 3 2 1 2 4 8 8 10 8 9 9 9 9 10 8 7 7 5
3 7 8 13 4 2 6 3 2 3 5 6 5 5 6 4 6 7 8 8 8 7 6 4 4 3 2 4 4 3 4 5 6 7 8 11 11 9 7 8 10 9 6 6
8 1 0 6 2 5 4 2 4 5 5 5 1 6 3 7 6 7 7 7 7 6 3 2 2 1 1 3 4 5 3 1 3 4 6 3 6 7 10 10 9 7 6 7
1 2 3 6 9 13 9 8 6 7 6 5 4 17 7 9 9 9 8 6 5 3 3 1 2 4 3 5 6 6 4 2 3 2 2 6 6 7 7 9 6 6 8 8
5 2 5 7 5 4 6 7 10 9 3 12 9 11 5 8 8 7 7 4 2 2 3 3 1 1 4 6 6 5 3 4 4 3 3 2 5 6 8 7 7 7 8 8
10 8 10 13 8 3 5 11 11 5 3 9 15 22 9 11 4 6 4 2 5 7 5 3 6 4 6 8 4 3 2 4 6 5 6 6 4 9 10 9 11 11 10 10
7 10 11 18 20 19 20 19 13 17 18 11 25 20 9 5 3 5 5 5 6 2 6 6 4 4 5 6 6 6 7 6 5 6 7 8 8 7 8 11 11 11 11 11
4 3 5 14 18 16 22 22 20 22 24 19 25 34 10 6 4 5 7 4 6 6 7 6 6 6 6 6 6 6 6 6 6 9 7 7 8 8 8 7 10 12 11 10
8 4 5 10 8 7 16 22 24 22 20 18 23 28 8 7 7 10 3 7 7 6 6 5 5 5 6 7 7 7 6 6 8 7 6 6 8 8 6 6 9 10 10 10
9 7 3 3 1 8 9 5 12 19 18 16 19 18 11 13 8 6 6 9 7 5 3 1 1 2 4 5 7 7 5 5 6 11 7 4 5 4 2 6 8 9 11 12
12 9 4 4 7 9 17 8 4 6 11 8 6 4 4 7 6 6 7 7 7 6 5 6 6 5 5 4 5 7 5 4 4 6 9 5 2 0 2 3 4 4 7 10
12 10 6 5 5 9 5 3 4 5 18 7 4 4 6 4 3 3 3 4 3 4 5 7 8 7 6 5 3 3 4 5 7 6 6 6 5 3 4 2 2 1 1 5
6 6 14 13 10 7 12 3 2 7 4 5 7 6 7 4 5 4 3 4 4 5 8 7 7 7 7 4 1 3 5 8 8 5 8 7 6 3 5 4 1 1 2 4
12 10 6 7 7 12 11 7 13 6 5 6 5 4 4 3 3 2 4 5 5 6 6 8 7 7 4 4 3 3 5 6 3 3 7 6 1 3 4 5 2 3 4 5
7 11 8 9 7 3 1 3 7 5 6 4 5 2 2 3 3 4 3 4 5 7 7 6 6 6 4 2 5 4 5 5 5 3 6 1 2 3 4 4 4 2 3 4
8 9 4 6 8 4 2 6 3 4 4 6 6 5 3 2 3 4 4 5 5 6 3 3 5 5 4 5 6 4 4 10 6 5 5 3 3 3 2 2 2 3 3 3
5 12 9 7 10 4 4 1 5 6 5 5 4 4 2 3 5 4 5 6 4 5 4 5 6 7 10 11 4 3 5 3 7 8 5 3 3 3 2 2 2 3 1 4
5 6 9 4 5 6 2 5 7 6 5 7 6 7 7 6 6 7 7 6 6 6 6 7 6 7 9 8 1 1 2 5 12 9 6 5 3 3 3 3 2 2 2 6
Wind_Direction
282 306 224 240 230 269 325 313 302 297 302 349 227 241 262 264 266 256 237 194 142 116 118 84 70 57 55 54 89 92 109 127 139 95 106 159 190 170 189 198 196 198 210 216
297 251 238 268 274 281 309 316 296 293 323 2 323 291 272 270 261 241 230 171 134 119 96 84 70 64 57 55 80 93 117 129 150 129 144 177 163 198 180 189 195 204 202 207
188 265 196 20 325 337 272 232 277 302 337 333 341 297 275 284 322 46 76 131 123 131 120 103 87 78 65 64 72 88 94 113 111 127 91 46 17 8 360 298 332 8 217 205
215 261 203 235 248 246 283 352 357 346 21 268 40 283 304 281 286 125 115 105 114 107 104 105 101 91 97 84 78 84 86 89 98 83 63 34 246 252 318 30 29 23 32 57
248 197 204 225 239 323 278 34 346 314 292 13 281 258 267 276 273 150 120 115 108 111 110 101 104 112 111 111 107 101 98 106 125 127 137 126 285 27 13 47 62 73 53 54
233 248 241 216 229 200 303 311 301 261 213 164 258 191 264 271 215 138 132 120 110 98 92 86 92 115 127 146 162 175 175 183 166 157 169 180 203 192 232 209 221 213 123 50
284 261 233 189 195 253 217 50 320 332 22 209 346 332 251 293 161 162 147 134 131 129 126 135 150 166 186 195 201 201 194 196 184 177 183 188 190 178 192 205 190 195 217 224
234 318 261 30 162 172 171 143 164 266 256 286 352 248 254 58 78 102 117 125 115 112 133 163 188 193 156 258 222 232 218 229 197 192 197 193 190 183 179 188 191 203 207 212
293 254 352 139 79 133 232 220 213 277 265 291 213 244 22 91 72 104 128 122 141 148 155 166 95 142 145 111 51 182 223 252 236 197 198 201 192 186 197 197 196 206 212 204
279 297 228 277 43 343 159 169 6 323 293 266 244 228 236 153 145 133 133 142 131 125 113 117 123 145 171 168 204 221 246 285 251 249 203 211 191 188 198 192 204 204 199 186
12 23 17 10 192 232 293 243 224 186 195 234 277 258 179 143 129 136 131 125 125 96 88 68 356 297 252 270 257 227 222 190 294 288 272 206 169 183 180 216 214 193 155 175
27 53 273 246 313 293 261 270 234 203 243 242 184 255 154 157 154 138 140 131 87 109 123 114 241 246 262 277 277 227 209 206 281 285 103 185 191 199 190 213 196 156 168 174
182 23 330 291 268 254 230 242 243 256 196 236 232 252 100 122 130 167 135 61 330 207 209 224 291 5 321 298 286 222 215 236 261 272 301 310 205 195 199 192 165 168 172 181
104 186 218 246 235 290 290 289 294 282 246 272 234 270 241 272 196 175 151 214 263 250 250 87 53 51 26 12 350 286 293 285 271 267 277 275 215 197 195 185 188 180 183 186
142 216 214 242 253 263 276 270 266 267 264 252 274 252 260 224 223 219 221 247 243 134 71 81 68 45 36 23 12 354 324 323 310 275 268 259 249 220 191 194 182 184 183 188
180 234 211 255 253 256 267 261 251 250 253 252 263 271 222 250 269 270 254 277 87 91 83 62 40 26 16 351 313 282 266 251 244 259 266 261 245 236 213 179 171 173 179 184
166 195 180 256 226 240 258 247 241 248 245 241 248 257 286 260 255 256 171 105 110 92 80 58 29 360 346 331 318 291 295 310 284 260 286 303 268 244 212 160 161 171 189 180
165 181 191 250 130 227 249 246 212 223 238 233 252 264 270 269 267 116 98 108 104 96 78 306 232 292 300 301 312 302 296 316 331 328 311 351 21 22 53 157 183 178 175 190
182 174 198 218 214 318 295 260 228 219 257 188 208 239 241 111 101 52 108 122 145 173 214 226 225 210 232 263 288 312 311 320 314 333 296 336 353 11 101 172 186 185 184 189
201 198 192 162 220 227 235 79 16 209 260 202 188 111 82 88 108 223 113 127 159 245 253 253 245 221 224 246 260 327 301 295 286 265 301 302 317 174 124 115 125 200 208 192
186 197 212 225 239 251 245 223 51 189 225 79 91 88 74 96 171 220 10 23 341 311 305 305 296 224 235 208 177 284 276 260 248 313 309 303 289 143 123 96 52 133 101 99
176 176 197 212 235 252 208 218 198 185 142 126 114 88 68 46 352 10 12 343 324 311 300 292 284 262 235 186 160 289 285 275 241 240 270 270 108 123 99 117 119 103 114 104
200 194 173 197 208 206 123 189 102 127 145 142 108 85 52 14 13 350 322 323 308 298 288 291 310 296 12 329 201 235 280 257 225 257 262 246 88 104 120 135 143 118 120 127
223 197 220 152 240 187 175 97 110 148 114 81 83 85 69 26 337 307 294 281 268 273 336 12 357 349 313 263 242 162 8 293 184 219 230 187 127 121 152 116 140 123 147 154
184 167 190 240 267 346 189 350 82 64 95 89 57 50 16 317 286 261 264 277 340 40 23 0 348 349 335 315 228 141 167 253 183 196 174 169 136 182 156 121 164 149 186 180
198 179 188 199 183 128 140 69 62 54 37 34 31 6 338 328 3 39 60 52 19 358 0 19 353 345 345 353 67 115 265 274 218 183 157 160 185 182 165 148 105 100 171 197